Location: Newark
(23.3970°S, 47.6010°W)
Time: 13:43:24
(UTC+00:00)

Tiros 1 despin weight - Pass Details

Date: 27 February 2020
Orbit: 593 x 642 km, 48.2° (Epoch: 31 March)

Event Time Altitude Azimuth Distance (km) Brightness Sun altitude
Rises 13:43:53 0° 267° (W) 2,890 ? 61.9°
Reaches altitude 10° 13:47:28 10° 239° (WSW) 2,002 ? 62.6°
Maximum altitude 13:49:32 13° 212° (SSW) 1,830 ? 63.0°
Drops below altitude 10° 13:51:39 10° 185° (S) 2,022 ? 63.4°
Sets 13:55:18 0° 156° (SSE) 2,946 ? 64.2°
